Date String (YYYY-MM-DD hh:mm:ss) UTC,Instrument flags,absolute air pressure of the measurement (hPa),sample flow rate (lpm),inlet stack bypass flow (lpm),air temperature of the measurement (°C),ambient temperature measured by the external sensor (°C),aerosol sample conditioner tube jacket temperature (°C),OPC LED temperature (°C),internal box temperature (°C),relative humidity of the measurement (%),span deviation,mass concentration of particles derived from Lorenz-Mie calculation of OPC scattering (μg/m³),mass concentration of particles derived from Lorenz-Mie calculation of OPC scattering (μg/m³),mass concentration of particles derived from Lorenz-Mie calculation of OPC scattering (μg/m³)
DateTimeUTC,F1_M11,P_M11,Q1_M11,Q2_M11,T1_M11,T2_M11,T3_M11,T4_M11,T5_M11,U1_M11,ZSPAN_M11,X2_M11,X0_M11,X1_M11
2024-06-17 22:00:00,SystemResetWarning,0815.3,5.00,000.00,029.3,028.9,000.0,037.4,031.2,034.2,0000.9,0010.21,0036.25,0007.56
2024-06-17 22:01:00,SystemResetWarning,0815.2,4.98,000.00,029.3,027.9,000.0,037.4,030.7,034.3,0001.4,0010.21,0036.92,0007.60
2024-06-17 22:02:00,SystemResetWarning,0815.1,5.01,000.00,028.9,025.9,000.0,037.5,029.8,034.7,0001.8,0010.25,0036.49,0007.64
2024-06-17 22:03:00,SystemResetWarning,0815.2,5.02,000.00,028.7,025.5,000.0,037.5,029.5,035.3,0002.1,0010.28,0037.47,0007.66
2024-06-17 22:04:00,SystemResetWarning,0815.1,5.00,000.00,028.6,026.0,000.0,037.4,029.7,035.4,0002.2,0010.34,0038.86,0007.68
2024-06-17 22:05:00,SystemResetWarning,0815.1,5.00,000.00,028.6,026.5,000.0,037.3,030.0,035.4,0001.7,0010.35,0039.75,0007.69
2024-06-17 22:06:00,SystemResetWarning,0815.2,5.01,000.00,028.7,027.0,000.0,037.2,030.3,035.6,0001.7,0010.38,0040.40,0007.70
2024-06-17 22:07:00,SystemResetWarning,0815.1,5.00,000.00,028.7,027.4,000.0,037.2,030.4,035.3,0001.8,0010.40,0039.34,0007.72
2024-06-17 22:08:00,SystemResetWarning,0815.1,5.00,000.00,028.8,027.8,000.0,037.2,030.6,035.3,0001.9,0010.41,0039.59,0007.72
2024-06-17 22:09:00,SystemResetWarning,0815.1,5.00,000.00,028.9,028.1,000.0,037.2,030.8,034.6,0001.8,0010.38,0039.66,0007.75
2024-06-17 22:10:00,SystemResetWarning,0815.0,5.00,000.00,029.0,028.4,000.0,037.2,030.9,034.5,0000.7,0010.44,0039.04,0007.78
2024-06-17 22:11:00,SystemResetWarning,0815.1,4.99,000.00,029.1,028.6,000.0,037.2,031.0,034.7,0000.5,0010.37,0038.92,0007.77
2024-06-17 22:12:00,SystemResetWarning,0815.0,4.99,000.00,029.2,028.8,000.0,037.3,031.2,034.5,0002.5,0010.33,0037.82,0007.76
2024-06-17 22:13:00,SystemResetWarning,0815.1,5.00,000.00,029.3,028.9,000.0,037.3,031.2,033.8,0002.5,0010.19,0037.70,0007.74
2024-06-17 22:14:00,SystemResetWarning,0815.0,5.01,000.00,029.2,027.5,000.0,037.4,030.6,034.0,0002.4,0010.14,0036.32,0007.72
2024-06-17 22:15:00,SystemResetWarning,0814.9,5.01,000.00,028.9,025.7,000.0,037.4,029.6,035.5,0001.8,0010.15,0036.70,0007.71
2024-06-17 22:16:00,SystemResetWarning,0814.9,5.01,000.00,028.6,025.6,000.0,037.4,029.5,035.4,0001.7,0010.18,0036.58,0007.70
2024-06-17 22:17:00,SystemResetWarning,0814.9,5.00,000.00,028.6,026.1,000.0,037.3,029.8,035.4,0001.8,0010.19,0037.24,0007.71
2024-06-17 22:18:00,SystemResetWarning,0815.0,5.00,000.00,028.6,026.6,000.0,037.2,030.1,035.5,0001.9,0010.22,0039.10,0007.72
2024-06-17 22:19:00,SystemResetWarning,0814.9,5.00,000.00,028.7,027.1,000.0,037.2,030.3,035.3,0002.1,0010.27,0040.40,0007.74
2024-06-17 22:20:00,SystemResetWarning,0814.9,5.00,000.00,028.7,027.5,000.0,037.2,030.5,035.1,0002.3,0010.30,0040.57,0007.75
2024-06-17 22:21:00,SystemResetWarning,0814.9,5.00,000.00,028.8,027.9,000.0,037.2,030.7,035.0,0002.4,0010.22,0039.61,0007.76
2024-06-17 22:22:00,SystemResetWarning,0814.9,5.00,000.00,028.9,028.2,000.0,037.2,030.8,034.4,0002.1,0010.27,0039.72,0007.76
2024-06-17 22:23:00,SystemResetWarning,0814.9,5.00,000.00,029.0,028.5,000.0,037.2,031.0,034.2,0002.4,0010.35,0040.37,0007.74
2024-06-17 22:24:00,SystemResetWarning,0814.9,5.00,000.00,029.1,028.7,000.0,037.3,031.1,034.0,0002.2,0010.36,0039.43,0007.74
2024-06-17 22:25:00,SystemResetWarning,0815.0,5.00,000.00,029.2,028.9,000.0,037.3,031.2,033.8,0002.7,0010.38,0040.00,0007.74
2024-06-17 22:26:00,SystemResetWarning,0814.9,4.99,000.00,029.2,028.0,000.0,037.4,030.7,034.3,0003.1,0010.33,0038.95,0007.72
2024-06-17 22:27:00,SystemResetWarning,0814.9,5.00,000.00,028.9,026.0,000.0,037.4,029.8,034.7,0003.3,0010.28,0039.75,0007.70
2024-06-17 22:28:00,SystemResetWarning,0814.8,5.02,000.00,028.6,025.5,000.0,037.4,029.5,035.5,0003.3,0010.25,0039.89,0007.68
2024-06-17 22:29:00,SystemResetWarning,0814.9,5.00,000.00,028.6,026.0,000.0,037.3,029.7,035.0,0003.0,0010.27,0039.75,0007.66
2024-06-17 22:30:00,SystemResetWarning,0814.9,5.00,000.00,028.6,026.5,000.0,037.2,030.0,035.1,0002.7,0010.25,0039.62,0007.63
2024-06-17 22:31:00,SystemResetWarning,0815.0,5.00,000.00,028.6,026.9,000.0,037.2,030.2,034.9,0001.3,0010.28,0039.00,0007.61
2024-06-17 22:32:00,SystemResetWarning,0815.0,4.99,000.00,028.7,027.4,000.0,037.1,030.4,034.9,0000.0,0010.34,0039.52,0007.59
2024-06-17 22:33:00,SystemResetWarning,0814.9,5.01,000.00,028.8,027.8,000.0,037.1,030.6,034.9,0000.0,0010.34,0038.12,0007.56
2024-06-17 22:34:00,SystemResetWarning,0814.9,5.00,000.00,028.9,028.1,000.0,037.1,030.8,034.6,0000.0,0010.28,0037.10,0007.55
2024-06-17 22:35:00,SystemResetWarning,0814.9,5.01,000.00,029.0,028.4,000.0,037.2,030.9,034.3,0000.0,0010.25,0038.66,0007.53
2024-06-17 22:36:00,SystemResetWarning,0814.9,5.00,000.00,029.1,028.6,000.0,037.2,031.0,033.9,0000.0,0010.22,0040.46,0007.51
2024-06-17 22:37:00,SystemResetWarning,0814.8,4.99,000.00,029.2,028.8,000.0,037.2,031.2,034.4,0000.0,0010.22,0040.26,0007.49
2024-06-17 22:38:00,SystemResetWarning,0814.8,5.00,000.00,029.3,028.5,000.0,037.3,031.0,034.4,0000.0,0010.25,0040.97,0007.46
2024-06-17 22:39:00,SystemResetWarning,0814.7,5.00,000.00,029.0,026.5,000.0,037.4,030.0,034.4,0000.0,0010.26,0039.63,0007.44
2024-06-17 22:40:00,SystemResetWarning,0814.6,5.00,000.00,028.7,025.6,000.0,037.4,029.6,035.1,0000.0,0010.26,0037.71,0007.40
2024-06-17 22:41:00,SystemResetWarning,0814.6,5.01,000.00,028.6,025.9,000.0,037.3,029.7,035.3,0000.0,0010.33,0036.90,0007.40
2024-06-17 22:42:00,SystemResetWarning,0814.6,5.00,000.00,028.6,026.4,000.0,037.2,029.9,035.7,0000.0,0010.34,0036.01,0007.42
2024-06-17 22:43:00,SystemResetWarning,0814.6,4.99,000.00,028.6,026.9,000.0,037.2,030.2,035.1,0000.0,0010.27,0034.82,0007.40
2024-06-17 22:44:00,SystemResetWarning,0814.7,5.00,000.00,028.7,027.3,000.0,037.1,030.4,034.9,0000.0,0010.19,0035.26,0007.39
2024-06-17 22:45:00,SystemResetWarning,0814.6,5.01,000.00,028.8,027.7,000.0,037.1,030.6,034.9,0000.0,0010.21,0036.30,0007.37
2024-06-17 22:46:00,SystemResetWarning,0814.6,5.00,000.00,028.9,028.1,000.0,037.1,030.7,034.7,0000.0,0010.16,0036.65,0007.35
2024-06-17 22:47:00,SystemResetWarning,0814.6,5.00,000.00,029.0,028.3,000.0,037.2,030.9,034.6,0000.0,0010.12,0037.07,0007.34
2024-06-17 22:48:00,SystemResetWarning,0814.6,5.00,000.00,029.1,028.6,000.0,037.2,031.0,034.4,0000.0,0010.13,0036.99,0007.35
2024-06-17 22:49:00,SystemResetWarning,0814.6,5.00,000.00,029.2,028.8,000.0,037.3,031.1,034.2,0000.0,0010.08,0035.84,0007.38
2024-06-17 22:50:00,SystemResetWarning,0814.6,4.97,000.00,029.2,027.9,000.0,037.3,030.7,034.4,0000.0,0010.04,0037.47,0007.40
2024-06-17 22:51:00,SystemResetWarning,0814.5,5.01,000.00,028.8,025.9,000.0,037.4,029.7,035.3,0000.0,0010.01,0037.83,0007.41
2024-06-17 22:52:00,SystemResetWarning,0814.4,5.02,000.00,028.6,025.4,000.0,037.3,029.4,036.0,0000.0,0009.98,0039.13,0007.43
2024-06-17 22:53:00,SystemResetWarning,0814.5,5.00,000.00,028.5,025.9,000.0,037.2,029.6,035.9,0000.0,0009.96,0040.06,0007.42
2024-06-17 22:54:00,SystemResetWarning,0814.5,5.00,000.00,028.5,026.4,000.0,037.1,029.9,036.1,0000.0,0009.97,0040.33,0007.44
2024-06-17 22:55:00,SystemResetWarning,0814.6,5.01,000.00,028.6,026.9,000.0,037.1,030.2,035.8,0001.8,0010.02,0041.99,0007.45
2024-06-17 22:56:00,SystemResetWarning,0814.6,4.99,000.00,028.6,027.4,000.0,037.1,030.4,035.4,0003.0,0010.00,0041.91,0007.49
2024-06-17 22:57:00,SystemResetWarning,0814.6,5.00,000.00,028.7,027.8,000.0,037.1,030.6,035.0,0003.0,0010.02,0041.75,0007.53
2024-06-17 22:58:00,SystemResetWarning,0814.7,5.00,000.00,028.8,028.1,000.0,037.1,030.7,034.8,0003.2,0010.11,0040.88,0007.59
2024-06-17 22:59:00,SystemResetWarning,0814.6,5.00,000.00,028.9,028.4,000.0,037.1,030.9,034.7,0003.6,0010.23,0040.68,0007.62
